Temperature
17 17 17 17 17 17 17 17 17 18 18 18 18 18 18 18 18 18 17 17 18 18 18 18 18 18 18 18 18 18 18 18 18 18 18 18 18 18 18 18 18 18 18
17 17 17 17 17 17 17 17 17 17 17 17 17 17 17 17 17 17 17 17 17 17 18 18 17 17 17 18 18 18 17 17 18 18 18 18 18 18 18 18 18 18 18
17 17 17 17 17 17 17 17 17 17 17 17 17 17 17 17 17 17 17 17 17 17 17 17 17 17 17 17 17 17 17 17 17 17 17 17 17 17 18 18 18 17 17
17 17 17 17 17 17 17 17 17 17 17 17 17 17 17 17 17 17 17 17 17 17 17 17 17 17 17 17 17 17 17 17 17 17 17 17 17 17 17 17 17 17 17
17 17 17 17 17 17 17 17 17 17 17 17 17 17 17 17 17 17 17 17 17 17 17 17 17 17 17 17 17 17 17 17 17 17 17 17 17 17 17 17 17 17 17
17 17 17 17 17 17 17 17 17 17 17 17 17 17 17 17 17 17 17 17 17 17 17 17 17 17 17 17 17 17 17 17 17 17 17 17 17 17 17 17 17 17 17
17 17 17 17 17 17 17 17 17 17 17 17 17 17 17 17 17 17 17 17 17 17 17 17 17 17 17 17 17 17 17 17 17 17 17 17 17 17 17 17 17 17 17
17 17 17 17 17 17 17 17 17 17 17 17 17 17 17 17 17 17 16 16 16 16 16 16 16 16 16 16 16 16 17 17 17 17 16 16 16 16 16 16 17 17 17
17 17 17 17 17 17 17 17 17 17 17 17 17 16 16 16 16 16 16 16 16 16 16 16 16 16 16 16 16 16 16 16 16 16 16 16 16 16 16 16 16 16 16
17 17 17 17 17 17 17 17 17 16 17 17 16 16 16 16 16 16 16 16 16 16 16 16 16 16 16 16 16 16 16 16 16 16 16 16 16 16 16 16 16 16 16
17 17 17 17 17 17 17 17 16 16 16 16 16 16 16 16 16 16 16 16 16 16 16 16 16 16 16 16 16 16 16 16 16 16 16 16 16 16 16 16 16 16 16
17 17 17 17 17 17 17 16 16 16 16 16 16 16 16 16 16 16 16 16 16 16 16 16 16 16 16 16 16 16 16 16 16 16 15 15 15 15 15 15 15 16 16
17 17 17 17 17 17 17 16 16 16 16 16 16 16 16 16 16 16 16 16 16 16 16 16 16 16 16 16 16 16 15 15 15 15 15 15 15 15 15 15 15 15 15
17 17 17 17 17 17 16 16 16 16 16 16 16 16 16 16 16 16 16 16 16 16 16 16 16 16 15 15 15 15 15 15 15 15 15 15 15 15 15 15 15 15 15
17 17 17 17 17 17 16 16 16 16 16 16 16 16 16 16 16 16 16 16 16 16 16 16 15 15 15 15 15 15 15 15 15 15 15 15 15 15 15 15 15 15 15
17 17 17 17 17 16 16 16 16 16 16 16 16 16 16 15 15 15 15 15 15 15 15 15 15 15 15 15 15 15 15 15 15 15 15 15 15 15 15 15 14 14 15
17 17 17 17 16 16 16 16 16 16 16 15 15 15 15 15 15 15 15 15 15 15 15 15 15 15 15 15 15 15 15 14 14 14 14 14 14 14 14 14 14 14 14
17 17 17 16 16 16 16 16 16 15 15 15 15 15 15 15 15 15 15 15 15 14 14 14 14 14 14 14 14 14 14 14 14 14 14 14 14 14 14 14 14 14 14
17 16 16 16 16 16 16 16 16 15 15 15 15 15 15 15 15 14 14 14 14 14 14 14 14 14 14 14 14 14 14 14 14 14 14 14 14 14 14 14 14 14 14
16 16 16 16 16 16 16 16 16 15 15 15 15 15 15 15 14 14 14 14 14 14 14 14 14 13 13 14 14 14 14 14 14 14 14 14 14 14 14 14 13 14 13
16 16 16 16 16 16 16 16 16 15 15 15 15 15 14 14 14 14 14 14 14 14 13 13 13 13 13 13 13 13 14 13 13 14 14 14 14 13 13 13 13 13 13
16 16 16 16 16 16 16 16 15 15 15 15 15 14 14 14 14 14 14 14 13 13 13 13 13 13 13 12 12 12 13 13 13 13 13 13 13 13 13 13 13 13 13
16 16 16 16 16 16 15 15 15 15 15 15 14 14 14 14 14 14 14 13 13 13 13 13 13 12 12 12 12 12 12 12 12 13 13 13 13 13 13 13 13 13 13
16 16 16 16 15 15 15 15 15 15 15 14 14 14 14 14 14 14 13 13 13 13 13 13 12 12 12 12 12 12 12 12 12 12 12 13 13 13 13 13 12 12 12
16 16 16 15 15 15 15 15 15 14 14 14 14 14 14 14 14 13 13 13 13 13 12 12 12 12 12 12 12 12 12 12 12 11 12 12 12 12 12 12 12 12 12
16 16 15 15 15 15 15 14 14 14 14 14 14 14 14 14 14 13 13 13 13 13 12 12 12 12 12 12 12 12 11 11 11 11 11 11 12 12 12 12 12 12 12
Wind_Speed
2 3 3 6 7 8 9 10 10 11 12 12 12 12 12 12 11 11 11 11 11 10 10 10 10 10 10 9 9 9 9 9 9 9 9 8 8 8 9 9 7 6 8
1 1 3 6 8 9 10 10 11 11 12 12 12 12 13 12 12 12 12 11 11 11 11 11 10 10 9 8 8 9 9 9 10 9 9 8 8 9 9 9 9 8 8
2 2 4 6 8 9 10 10 10 11 11 12 12 13 13 13 13 13 11 11 11 11 11 11 10 10 10 9 8 9 9 9 10 9 8 7 7 9 9 9 9 9 8
3 3 4 6 7 8 9 10 11 11 11 11 12 12 12 12 13 13 13 12 12 12 12 12 11 11 11 11 10 10 10 10 9 9 7 7 6 8 9 9 9 9 8
4 4 4 6 7 8 9 10 10 10 11 11 12 12 12 12 12 12 12 13 12 12 12 12 12 11 11 11 11 11 10 10 10 9 8 7 6 8 9 9 9 9 8
4 4 4 6 7 8 9 9 9 10 11 11 11 11 11 12 12 12 12 12 12 12 12 11 11 11 11 10 10 10 10 10 10 8 8 7 6 8 9 9 8 8 8
3 4 4 6 7 8 9 9 9 10 10 11 11 11 11 11 11 11 11 11 12 11 11 11 10 11 10 10 10 9 10 10 9 8 7 7 7 8 8 8 8 8 8
4 4 4 5 7 8 8 8 9 9 9 10 10 10 10 10 11 11 11 11 11 11 11 10 10 10 10 10 9 9 9 9 8 7 6 6 7 8 8 8 8 7 7
5 5 5 5 6 7 8 8 8 9 9 9 9 9 10 10 11 11 11 11 11 10 10 11 11 10 10 10 10 10 10 10 8 6 6 6 7 7 8 8 8 8 7
4 4 5 5 6 6 7 8 8 9 9 9 9 10 10 11 11 11 11 11 10 11 11 11 11 11 11 10 10 10 10 10 8 8 6 6 8 8 9 9 9 8 8
3 3 4 4 5 5 5 6 8 8 9 9 9 10 10 10 10 10 11 11 11 11 11 12 11 11 11 10 10 10 9 8 8 7 7 7 8 8 8 8 8 8 7
1 1 2 3 3 4 5 6 7 7 8 9 9 9 9 9 9 9 10 11 11 11 11 11 11 11 10 8 8 9 7 7 7 6 6 7 8 8 8 8 7 7 6
2 1 1 2 3 4 4 4 5 6 6 7 7 7 8 8 8 8 8 9 10 10 9 9 10 9 7 7 6 6 6 6 5 5 6 6 7 7 7 8 8 6 6
2 1 1 2 2 3 3 3 4 4 4 4 5 6 6 5 5 6 6 7 7 7 7 7 6 7 7 7 6 6 6 5 5 5 5 6 7 7 7 7 7 7 6
2 1 1 2 2 2 3 3 4 3 3 3 4 5 6 4 4 4 5 6 6 7 6 5 5 6 5 6 6 6 5 5 5 5 5 6 7 7 7 7 7 7 6
2 1 1 2 2 3 2 2 2 3 3 3 4 4 5 4 4 4 4 4 5 6 6 5 4 4 4 4 5 5 5 5 5 5 6 6 7 7 8 8 8 7 6
2 1 1 2 2 3 3 2 2 2 3 3 3 4 4 5 4 4 3 3 4 5 6 5 5 5 4 4 4 5 5 5 5 5 5 6 6 6 7 8 8 8 8
2 2 1 1 2 2 2 2 2 2 3 2 2 3 4 5 5 4 3 2 4 5 4 3 3 4 4 4 3 4 4 4 5 5 5 5 5 5 6 7 8 8 8
2 2 2 1 2 2 2 2 2 3 2 2 3 3 3 4 4 4 3 3 4 4 3 3 3 3 3 3 3 3 3 3 3 4 4 5 5 5 5 6 8 8 7
2 3 2 2 2 2 2 2 2 2 2 3 2 2 2 3 3 4 3 3 3 3 3 3 3 3 2 2 3 3 3 3 3 3 3 4 4 5 5 5 6 6 6
3 3 3 3 2 3 2 2 2 1 1 1 2 2 2 2 3 3 2 2 2 2 1 2 2 3 3 3 2 3 3 3 3 2 3 3 3 4 4 4 4 4 5
2 2 2 2 2 2 2 1 2 1 1 0 2 2 2 2 2 2 2 1 1 1 2 2 2 2 2 3 2 2 3 4 3 3 3 2 2 3 3 3 3 3 3
2 3 3 2 2 2 3 3 3 3 2 2 2 1 2 1 2 2 2 1 1 1 1 1 1 2 1 2 2 1 1 2 3 3 2 2 3 2 2 2 2 3 3
3 3 2 2 2 3 4 4 5 2 1 1 1 1 1 2 1 1 1 1 1 1 1 0 1 1 2 0 1 1 1 1 0 2 3 3 3 2 2 2 2 2 2
3 3 3 3 2 2 3 4 4 2 1 0 0 1 1 2 2 1 1 1 1 1 1 0 0 1 1 1 1 0 0 1 1 1 3 4 3 3 3 2 2 2 2
2 2 2 3 2 2 3 3 3 3 2 1 0 0 1 1 1 2 1 1 0 0 1 1 1 1 1 1 1 1 1 1 1 2 2 3 3 3 3 2 2 2 2
Wind_Direction
300 315 26 67 73 74 71 69 67 68 67 66 67 68 67 70 76 79 81 78 77 80 82 82 82 82 80 80 84 85 83 81 78 74 73 70 67 65 63 61 69 91 98
210 349 66 73 78 77 75 73 70 69 68 69 70 70 69 70 73 75 79 77 75 75 78 80 80 77 74 77 87 88 85 82 77 72 68 64 64 65 66 66 73 88 92
99 63 76 77 78 80 79 77 74 72 72 71 71 71 71 69 70 70 75 77 76 76 78 79 78 75 70 73 83 88 84 80 77 72 62 54 59 64 66 68 73 79 85
93 73 82 84 83 83 81 78 74 73 73 73 72 73 73 72 71 69 69 72 71 72 74 76 74 75 71 73 79 82 81 79 76 69 58 51 55 66 66 68 72 74 75
74 70 87 91 86 84 82 80 77 76 75 74 72 73 73 73 71 69 68 66 65 66 67 68 69 70 71 73 75 77 77 75 70 62 55 49 52 63 64 66 69 72 73
71 72 94 95 88 83 81 80 78 76 76 75 73 72 73 73 72 70 68 67 65 65 66 64 63 64 68 72 72 73 75 72 66 61 55 52 53 63 67 67 69 71 73
86 70 92 97 93 87 82 80 78 74 74 74 73 73 73 72 73 70 67 65 64 63 63 62 61 63 66 71 71 74 76 71 65 61 55 53 56 61 66 70 70 69 71
88 70 81 93 91 88 85 83 79 76 74 74 72 72 72 70 68 67 65 62 60 59 60 61 61 63 65 70 68 71 73 69 67 62 56 54 58 63 64 63 64 64 67
72 63 55 63 74 81 81 78 76 74 73 71 68 68 68 65 62 61 59 58 57 56 58 60 60 62 63 66 67 70 71 67 63 58 55 51 57 61 64 62 60 59 61
65 54 50 51 57 59 66 73 71 69 68 68 66 64 63 60 57 55 54 54 54 55 58 60 59 60 62 63 65 70 69 61 56 53 49 52 56 58 59 59 59 59 57
63 47 49 53 53 57 63 68 66 65 61 62 61 63 59 54 52 51 52 52 53 54 55 55 55 57 58 58 58 63 63 59 54 48 45 50 53 56 55 53 53 54 55
94 57 55 60 52 55 62 60 58 55 54 56 57 57 58 56 54 53 52 52 52 52 52 50 49 48 49 51 51 53 58 55 51 44 43 43 48 52 53 49 48 53 56
168 145 118 80 59 62 58 62 56 54 53 54 56 60 60 54 49 47 45 43 45 47 46 43 44 42 46 51 54 55 56 57 49 41 37 42 47 50 51 47 45 49 56
128 126 104 82 77 66 64 62 62 55 50 48 51 60 64 55 46 43 45 40 43 46 45 43 48 45 46 49 57 57 52 54 49 41 36 40 46 48 47 44 42 41 47
130 145 130 99 109 91 74 63 67 58 53 55 59 59 68 67 54 45 43 46 44 46 48 45 48 43 41 45 50 53 49 48 48 45 37 41 45 46 45 40 37 38 44
148 167 154 135 127 118 109 92 78 72 66 60 57 58 69 76 68 56 47 43 42 44 48 53 52 46 39 45 40 43 46 47 51 47 41 37 40 44 42 37 35 38 47
154 145 145 151 113 135 135 115 88 87 84 65 59 59 69 76 76 70 60 45 36 45 53 58 52 51 42 39 31 31 41 41 46 45 42 41 37 38 39 38 37 40 48
117 118 142 150 132 131 138 124 96 93 85 71 74 70 73 78 83 81 68 50 45 54 58 52 42 39 33 29 21 15 26 32 31 37 40 40 40 38 33 34 37 41 45
129 134 120 96 128 134 121 114 105 88 75 74 77 73 77 78 84 88 74 58 63 60 47 49 40 42 35 23 13 10 10 13 12 25 31 28 35 39 34 31 34 34 37
108 107 105 88 84 98 95 89 87 78 59 57 62 65 82 87 91 91 77 62 69 65 44 42 46 37 37 18 18 11 358 356 13 15 14 22 26 33 38 35 31 23 25
93 92 102 94 89 107 103 118 129 134 74 43 34 58 84 95 100 102 80 71 67 79 74 63 63 42 27 16 27 2 354 2 16 9 14 25 17 19 33 33 30 27 18
135 130 119 119 116 129 133 134 136 134 123 116 26 38 57 89 98 102 103 110 99 92 74 64 71 51 21 23 53 33 354 347 354 3 358 13 5 9 17 17 22 21 14
159 170 163 161 140 112 108 94 70 56 39 31 22 16 9 68 90 92 97 108 121 129 139 114 104 98 47 2 40 104 108 277 317 331 339 356 355 355 350 349 356 358 3
199 181 159 157 137 118 111 117 118 114 135 243 250 266 349 29 52 78 93 99 124 141 173 195 98 133 134 263 349 9 189 187 216 319 328 341 344 333 325 328 324 327 348
180 164 152 141 130 122 127 134 135 134 155 11 35 35 357 349 4 32 88 93 146 174 204 185 159 159 168 186 200 239 21 19 157 199 297 323 335 315 304 290 288 298 313
147 142 135 132 135 132 134 143 149 150 142 116 47 272 288 294 313 342 37 53 217 206 224 240 218 200 207 212 208 196 184 196 216 195 244 294 306 307 306 289 277 276 289
Height
1520 1519 1518 1518 1518 1518 1517 1517 1517 1517 1516 1516 1515 1515 1514 1514 1514 1514 1515 1515 1516 1516 1516 1516 1517 1517 1516 1516 1516 1517 1518 1519 1519 1519 1519 1519 1518 1517 1515 1512 1509 1510 1513
1521 1520 1520 1520 1520 1519 1519 1519 1518 1518 1518 1518 1517 1516 1516 1515 1515 1516 1516 1516 1516 1517 1517 1517 1517 1517 1516 1514 1515 1517 1518 1519 1520 1520 1520 1519 1519 1518 1517 1515 1513 1513 1515
1522 1522 1522 1521 1521 1521 1520 1520 1520 1520 1520 1519 1519 1518 1518 1518 1517 1517 1517 1517 1517 1518 1518 1518 1518 1517 1515 1513 1514 1516 1518 1520 1520 1521 1521 1520 1520 1520 1519 1518 1516 1516 1517
1523 1523 1523 1523 1523 1523 1522 1522 1522 1522 1522 1521 1521 1520 1520 1520 1519 1519 1518 1518 1519 1519 1519 1519 1519 1519 1517 1515 1515 1517 1519 1521 1521 1522 1521 1521 1521 1521 1520 1520 1519 1519 1519
1524 1524 1524 1524 1524 1524 1524 1524 1524 1524 1523 1523 1523 1522 1522 1522 1522 1521 1521 1520 1521 1520 1520 1521 1521 1521 1520 1519 1519 1520 1521 1522 1522 1523 1522 1522 1522 1522 1522 1521 1521 1521 1521
1526 1526 1526 1526 1526 1526 1526 1526 1526 1526 1525 1525 1525 1524 1524 1524 1524 1523 1523 1523 1523 1522 1522 1523 1523 1523 1523 1522 1522 1522 1523 1523 1523 1524 1524 1523 1523 1523 1523 1522 1522 1522 1522
1527 1527 1528 1528 1528 1528 1528 1528 1528 1527 1527 1527 1527 1526 1526 1526 1526 1526 1525 1525 1525 1525 1524 1524 1524 1524 1524 1524 1524 1524 1524 1525 1525 1525 1525 1525 1524 1524 1523 1523 1523 1523 1523
1529 1529 1529 1529 1530 1529 1529 1529 1529 1529 1529 1529 1529 1528 1528 1528 1528 1528 1527 1527 1527 1526 1526 1526 1526 1526 1526 1526 1526 1526 1526 1526 1526 1526 1526 1525 1525 1525 1524 1524 1524 1524 1524
1530 1531 1531 1531 1531 1531 1531 1531 1531 1531 1531 1531 1530 1530 1530 1530 1530 1529 1529 1529 1528 1528 1528 1528 1527 1527 1527 1527 1527 1527 1527 1527 1527 1526 1526 1526 1526 1526 1525 1524 1524 1524 1524
1532 1532 1532 1532 1533 1533 1533 1533 1533 1533 1532 1532 1532 1532 1532 1532 1531 1531 1531 1531 1530 1530 1530 1529 1529 1528 1528 1528 1529 1529 1528 1528 1528 1528 1527 1527 1527 1526 1526 1525 1525 1525 1524
1533 1533 1534 1534 1534 1534 1534 1534 1534 1534 1534 1534 1534 1534 1533 1533 1533 1532 1532 1532 1532 1531 1531 1531 1530 1530 1530 1530 1529 1529 1529 1529 1529 1529 1528 1528 1527 1527 1526 1526 1525 1525 1525
1534 1534 1535 1535 1535 1535 1535 1535 1535 1535 1535 1535 1535 1535 1535 1534 1534 1534 1534 1533 1533 1533 1532 1532 1532 1531 1531 1530 1530 1530 1530 1530 1530 1529 1529 1528 1527 1527 1526 1526 1526 1525 1525
1535 1536 1536 1536 1536 1536 1536 1536 1537 1536 1536 1536 1536 1536 1536 1536 1535 1535 1535 1534 1534 1534 1533 1533 1532 1532 1532 1531 1531 1531 1531 1530 1530 1530 1529 1528 1528 1527 1527 1526 1526 1525 1525
1535 1536 1537 1537 1537 1537 1537 1537 1538 1537 1537 1537 1537 1537 1537 1537 1536 1536 1536 1535 1535 1534 1534 1533 1533 1532 1532 1532 1531 1531 1531 1531 1531 1530 1529 1529 1528 1527 1527 1526 1526 1525 1524
1536 1537 1537 1538 1538 1538 1538 1538 1538 1538 1538 1538 1538 1538 1538 1537 1537 1537 1536 1536 1536 1535 1534 1534 1534 1533 1532 1532 1532 1531 1531 1531 1531 1530 1530 1529 1528 1528 1527 1526 1525 1524 1524
1536 1537 1538 1538 1538 1539 1539 1539 1539 1539 1539 1539 1539 1539 1539 1538 1538 1538 1537 1537 1536 1536 1535 1534 1534 1533 1533 1532 1532 1532 1531 1531 1531 1531 1530 1529 1529 1528 1527 1526 1525 1524 1524
1536 1537 1538 1538 1538 1539 1539 1540 1540 1540 1540 1540 1540 1539 1539 1539 1539 1538 1538 1537 1537 1536 1535 1535 1534 1533 1533 1532 1532 1531 1531 1531 1531 1531 1530 1530 1529 1528 1527 1527 1526 1525 1524
1536 1537 1537 1538 1538 1538 1539 1540 1540 1540 1540 1540 1540 1540 1540 1540 1539 1539 1538 1538 1537 1536 1535 1534 1534 1533 1532 1532 1531 1531 1531 1531 1531 1530 1530 1530 1529 1528 1528 1527 1526 1526 1525
1536 1536 1537 1537 1538 1538 1539 1539 1540 1540 1541 1541 1541 1541 1540 1540 1540 1539 1539 1538 1537 1536 1536 1535 1534 1533 1532 1531 1531 1531 1530 1530 1530 1530 1529 1529 1529 1529 1528 1527 1527 1526 1526
1535 1536 1537 1537 1537 1538 1538 1539 1540 1540 1540 1541 1541 1541 1541 1540 1540 1539 1539 1538 1537 1536 1535 1534 1534 1533 1532 1531 1530 1530 1530 1529 1529 1529 1529 1529 1528 1528 1528 1527 1527 1526 1526
1534 1535 1535 1536 1536 1537 1537 1538 1538 1539 1540 1540 1540 1540 1540 1540 1539 1539 1538 1538 1537 1536 1535 1534 1533 1532 1532 1531 1530 1529 1529 1529 1528 1528 1528 1528 1527 1527 1527 1527 1526 1526 1526
1533 1533 1534 1535 1535 1536 1536 1537 1538 1539 1539 1540 1540 1540 1540 1539 1539 1539 1538 1537 1537 1536 1535 1534 1533 1532 1531 1531 1530 1529 1528 1529 1528 1527 1527 1527 1527 1527 1526 1526 1526 1526 1525
1531 1532 1533 1534 1535 1535 1536 1536 1537 1538 1539 1539 1539 1539 1539 1539 1538 1538 1537 1537 1536 1535 1534 1533 1533 1532 1531 1531 1530 1531 1529 1528 1527 1526 1526 1526 1526 1526 1526 1525 1525 1525 1524
1530 1531 1532 1533 1534 1535 1535 1535 1536 1536 1537 1537 1538 1538 1538 1538 1537 1537 1536 1536 1535 1534 1534 1533 1532 1531 1531 1530 1530 1530 1530 1529 1528 1526 1525 1525 1525 1525 1525 1525 1524 1524 1523
1529 1530 1531 1532 1533 1534 1534 1535 1535 1536 1536 1537 1537 1537 1537 1537 1536 1536 1535 1535 1534 1533 1532 1532 1531 1530 1530 1529 1528 1528 1528 1527 1527 1526 1524 1523 1523 1523 1523 1523 1523 1523 1522
1527 1529 1530 1530 1531 1532 1533 1534 1534 1534 1535 1535 1535 1535 1535 1535 1535 1534 1534 1533 1533 1532 1531 1530 1530 1529 1528 1528 1527 1527 1526 1526 1525 1524 1523 1522 1521 1521 1521 1521 1521 1521 1521